Sigla Aeroporto Press.
(hPa)
Vento
(°)/(Km/h)
T
(C)
Td
(C)
Umid.
Rel.
(%)
Visibilidade
(Km)
Nebulosidade Condições do Tempo Horário
Medição
SBAA CONCEIÇÃO ARAGUAIA BRASIL 1013 Ventos calmos - - - >= 10 - - 2019-02-04 13:00 GMT
SBAF AFONSOS ARPT (MIL) BRASIL 1014 220/5.6 26 23 83 >= 10 Parcialmente nublado - 2019-02-04 13:00 GMT
SBAM AMAPA AIRPORT BRASIL 1009 Ventos calmos 31 22 58 >= 10 Parcialmente nublado - 2011-10-13 18:00 GMT
SBAN ANAPOLIS (BRAZ-AFB) BRASIL 1021 160/18.5 21 14 64 >= 10 Parcialmente nublado - 2019-02-04 13:00 GMT
SBAR ARACAJU/SANTA MARIA BRASIL 1013 90/18.5 30 21 58 >= 10 Predominantemente claro - 2019-02-04 14:00 GMT
SBAT ALTA FLORESTA BRASIL 1014 60/7.4 30 24 70 >= 10 - - 2019-02-04 13:00 GMT
SBAU ARAÇATUBA BRASIL 1014 180/7.4 23 16 64 >= 10 Parcialmente nublado - 2019-02-04 08:00 GMT
SBBE BELEM/VAL DE CAES BRASIL 1012 40/14.8 29 24 74 >= 10 Nublado - 2019-02-04 14:00 GMT
SBBG BAGE/CMDT KRAEMER BRASIL 1023 130/29.6 22 14 60 >= 10 Parcialmente nublado - 2019-02-04 14:00 GMT
SBBH BELO HORIZ/PAMPULHA BRASIL 1020 240/16.7 23 15 60 >= 10 Nublado - 2019-02-04 13:00 GMT
SBBI CURITIBA/BACACHERI BRASIL 1022 130/14.8 17 16 93 >= 10 Encoberto - 2019-02-04 13:00 GMT
SBBQ BARBACENA (CIV/MIL) BRASIL 1020 340/3.7 20 16 77 >= 10 Encoberto - 2019-02-04 13:00 GMT
SBBR BRASILIA (CIV/MIL) BRASIL 1020 150/18.5 26 17 57 >= 10 Predominantemente claro - 2019-02-04 14:00 GMT
SBBU BAURU BRASIL 1018 120/14.8 25 23 88 >= 10 Nublado - 2019-02-04 13:00 GMT
SBBV BOA VISTA (CIV/MIL) BRASIL 1013 80/33.4 30 20 55 >= 10 Nublado - 2019-02-04 14:00 GMT
SBBW BERRA DO GARCAS BRASIL 1015 Ventos calmos 26 20 69 >= 10 - - 2019-02-04 13:00 GMT
SBCB SAO PAULO/CUMBIC AB BRASIL 1013 260/25.9 29 24 74 >= 10 Nublado - 2019-02-04 14:00 GMT
SBCC CACHIMBO BRASIL 1016 50/5.6 25 21 78 >= 10 Nublado - 2019-02-04 13:00 GMT
SBCF BELO HORIZ/TANCREDO BRASIL 1019 180/14.8 22 17 73 >= 10 Nublado - 2019-02-04 14:00 GMT
SBCG CAMPO GRANDE INTL BRASIL 1016 100/14.8 31 21 55 >= 10 Predominantemente claro - 2019-02-04 14:00 GMT
SBCI CAROLINA AIRPORT BRASIL 1013 290/3.7 30 24 70 >= 10 Parcialmente nublado - 2019-02-04 13:00 GMT
SBCJ CARAJAS/MARABA BRASIL 1017 Ventos calmos 25 21 78 >= 10 Nublado - 2019-02-04 14:00 GMT
SBCO PORTO ALEGRE/CANOAS BRASIL 1020 110/14.8 24 16 60 >= 10 Parcialmente nublado - 2019-02-04 13:00 GMT
SBCP CAMPOS/BARTOLOMEU BRASIL 1013 280/22.2 30 20 55 >= 10 Predominantemente claro - 2019-02-04 13:00 GMT
SBCR CORUMBA INTL ARPT BRASIL 1014 210/13 30 23 66 6.0 Predominantemente claro - 2019-02-04 14:00 GMT
SBCT CURITIBA/AFONSO PENA BRASIL 1022 130/16.7 17 15 88 >= 10 Encoberto - 2019-02-04 13:00 GMT
SBCV CARAVELAS AIRPORT BRASIL 1012 20/18.5 25 22 83 >= 10 - - 2008-10-27 22:00 GMT
SBCY CUIABA/MARECHAL RON BRASIL 1016 280/3.7 27 21 69 >= 10 - - 2019-02-04 13:00 GMT
SBCZ CRUZEIRO DO SUL BRASIL 1014 120/5.6 24 24 100 >= 10 Encoberto - 2019-02-04 13:00 GMT
SBDN PRESIDENTE PRUDENTE BRASIL 1017 70/18.5 27 18 57 >= 10 Parcialmente nublado - 2019-02-04 13:00 GMT
SBEG EDUARDO GOMES INTL BRASIL 1022 50/18.5 27 25 88 >= 10 Parcialmente nublado - 2019-02-04 14:00 GMT
SBEK JACAREACANGA BRASIL 1013 140/7.4 29 24 74 >= 10 - - 2019-02-04 13:00 GMT
SBES SAO PEDRO DA ALDEIA BRASIL 1013 220/22.2 29 24 74 >= 10 Nublado - 2019-02-04 13:00 GMT
SBFI FOZ DO IGUACU ARPT BRASIL 1016 130/14.8 24 20 78 >= 10 Nublado - 2019-02-04 13:00 GMT
SBFL FLORIANOPOLIS ARPT BRASIL 1019 210/18.5 25 18 65 >= 10 Parcialmente nublado - 2019-02-04 14:00 GMT
SBFN FERNANDO DE NORONHA BRASIL 1012 -/7.4 29 25 79 >= 10 Parcialmente nublado - 2019-02-04 14:00 GMT
SBFZ FORTALEZA/PINTO MAR BRASIL 1012 70/5.6 - - - 5.0 Nublado chuva leve 2019-02-04 14:00 GMT
SBGL GALEAO/RIO(CIV/MIL) BRASIL 1012 120/14.8 27 24 83 >= 10 Nublado - 2019-02-04 14:00 GMT
SBGO GOIANIA/SANTA GENOV BRASIL 1018 -/5.6 25 17 61 >= 10 - - 2019-02-04 14:00 GMT
SBGP GUARAPUAVA BRASIL 1014 330/14.8 27 21 69 >= 10 Nublado - 2013-01-25 13:00 GMT
SBGR GUARULHOS (CIV/MIL) BRASIL 1019 130/7.4 20 20 100 2.5 Encoberto chuva leve e névoa úmida 2019-02-04 14:00 GMT
SBGW GUARATINGUETA (MIL) BRASIL 1017 Ventos calmos 21 20 94 3.0 Encoberto chuva leve e névoa úmida 2019-02-04 13:00 GMT
SBHT ALTAMIRA BRASIL 1013 70/14.8 28 24 78 >= 10 Nublado - 2019-02-04 13:00 GMT
SBIC ITACOATIARA BRASIL 1013 90/11.1 27 25 88 >= 10 Predominantemente claro - 2019-02-04 13:00 GMT
SBIH ITAITUBA BRASIL 1013 90/5.6 27 24 83 >= 10 Parcialmente nublado - 2019-02-04 13:00 GMT
SBIL ILHEUS AIRPORT BRASIL 1013 10/7.4 30 24 70 >= 10 Predominantemente claro - 2019-02-04 13:00 GMT
SBIZ IMPERATRIZE BRASIL 1012 60/7.4 30 24 70 >= 10 Nublado - 2019-02-04 13:00 GMT
SBJF JUIZ FORA/FRANCISCO BRASIL 1022 360/5.6 15 13 87 >= 10 - - 2017-08-08 01:00 GMT
SBJP JOAO PESSOA/PRES CA BRASIL 1013 80/20.4 27 24 83 >= 10 Predominantemente claro - 2019-02-04 13:00 GMT
SBJR RIO/JACAREPAGUA BRASIL 1013 170/1.9 26 24 88 >= 10 Nublado chuva leve 2019-02-04 13:00 GMT
SBJV JOINVILLE BRASIL 1019 Ventos calmos 22 20 88 >= 10 Encoberto - 2019-02-04 13:00 GMT
SBKG CAMPINA GRANDE BRASIL 1015 100/11.1 26 22 78 >= 10 Nublado - 2019-02-04 13:00 GMT
SBKP CAMPINAS/VIRACOPOS BRASIL 1017 190/20.4 25 19 69 >= 10 Nublado - 2019-02-04 14:00 GMT
SBLB LABREA-IN-AMAZONAS BRASIL 1013 - - - - >= 10 Parcialmente nublado - 2019-02-04 12:00 GMT
SBLN LINS BRASIL 1012 90/18.5 22 21 94 5.0 Nublado trovoadas com chuva leve 2008-01-11 08:00 GMT
SBLO LONDRINA AIRPORT BRASIL 1019 80/18.5 26 18 61 >= 10 Nublado - 2019-02-04 14:00 GMT
SBLP BOM JESUS DA LAPA BRASIL - 240/13 38 15 25 >= 10 Parcialmente nublado - 2019-02-01 19:00 GMT
SBLS LAGOA SANTA(CV/MIL) BRASIL 1019 220/18.5 23 16 64 >= 10 Parcialmente nublado - 2019-02-04 13:00 GMT
SBMA MARABA BRASIL 1013 10/9.3 31 24 66 >= 10 Nublado - 2019-02-04 14:00 GMT
SBMD MONTE DOURADO BRASIL 1014 100/9.3 27 24 83 >= 10 Parcialmente nublado - 2019-02-04 13:00 GMT
SBME MACAE BRASIL 1013 300/5.6 37 23 44 >= 10 Nublado - 2019-02-04 13:00 GMT
SBMG MARINGA BRASIL 1016 60/16.7 26 20 69 >= 10 Parcialmente nublado - 2019-02-04 12:00 GMT
SBMK MONTES CLAROS BRASIL 1016 -/5.6 32 13 31 >= 10 Predominantemente claro - 2019-02-04 13:00 GMT
SBMN MANAUS/PONTA PELADA BRASIL 1013 60/13 29 25 79 >= 10 Nublado - 2019-02-04 14:00 GMT
SBMO MACEIO/CAMPO PALMAR BRASIL 1013 80/14.8 30 23 66 >= 10 Nublado - 2019-02-04 14:00 GMT
SBMQ MACAPA INTL AIRPORT BRASIL 1013 40/22.2 31 25 70 >= 10 Predominantemente claro - 2019-02-04 14:00 GMT
SBMS MOCORO/17 ROSADO BRASIL 1011 90/11.1 35 23 50 >= 10 Nublado - 2019-02-04 13:00 GMT
SBMT MARTE (CIV/MIL) BRASIL 1019 140/7.4 20 19 93 8.0 Encoberto chuva moderada 2019-02-04 13:00 GMT
SBMY MANICORE BRASIL 1013 Ventos calmos 27 23 78 >= 10 - - 2019-02-04 13:00 GMT
SBNT NATAL/AUGUSTO SEVER BRASIL 1012 100/16.7 32 23 59 >= 10 Parcialmente nublado - 2019-02-04 14:00 GMT
SBOI OIAPOQUE BRASIL 1014 40/7.4 28 23 74 >= 10 Parcialmente nublado - 2019-02-04 14:00 GMT
SBPA PORTO ALEGRE/SALGAD BRASIL 1021 100/14.8 25 17 61 >= 10 Nublado - 2019-02-04 13:00 GMT
SBPB PARNAIBA AIRPORT BRASIL 1012 70/9.3 30 21 58 >= 10 Parcialmente nublado - 2019-02-04 13:00 GMT
SBPC POCOS DE CALDAS BRASIL 1020 20/3.7 28 18 54 >= 10 Predominantemente claro - 2019-02-04 13:00 GMT
SBPF PASSO FUNDO/LAURO BRASIL 1021 80/29.6 23 16 64 >= 10 Nublado - 2019-02-04 13:00 GMT
SBPG PARANAGUA BRASIL 1021 130/14.8 19 16 82 >= 10 Nublado - 2019-02-04 12:00 GMT
SBPK PELOTAS BRASIL 1022 Ventos calmos 21 17 77 >= 10 Encoberto - 2019-02-04 13:00 GMT
SBPL PETROLINA AIRPORT BRASIL 1014 100/18.5 31 20 52 >= 10 Parcialmente nublado - 2019-02-04 13:00 GMT
SBPN PORTO NACIONAL ARPT BRASIL 1012 300/9.3 28 24 78 >= 10 - - 2015-11-11 11:15 GMT
SBPP PONTA PORA INTL BRASIL 1018 110/7.4 27 20 65 >= 10 Predominantemente claro - 2019-02-04 14:00 GMT
SBPV PORTO VELHO(CV/MIL) BRASIL 1014 200/9.3 28 23 74 >= 10 Nublado - 2019-02-04 14:00 GMT
SBQU VITORIA DA CONQUIST BRASIL - 360/1.9 - - - >= 10 - - 2008-07-23 03:00 GMT
SBQV VITORIA DA CONQUIST BRASIL 1022 110/18.5 27 11 36 >= 10 Predominantemente claro - 2011-09-12 17:00 GMT
SBRB RIO BRANCO/MEDICI BRASIL 1015 160/11.1 28 25 83 >= 10 Parcialmente nublado - 2019-02-04 14:00 GMT
SBRF RECIFE/GUARARAPES BRASIL 1012 60/5.6 26 25 94 >= 10 Nublado - 2019-02-04 14:00 GMT
SBRJ SANTOS DUMONT/RIO BRASIL 1013 160/9.3 26 24 88 8.0 Nublado - 2019-02-04 13:00 GMT
SBRP LEITE LOPES/RIBEIR& BRASIL 1017 40/5.6 27 18 57 >= 10 - - 2019-02-04 13:00 GMT
SBSC SANTA CRUZ (MIL) BRASIL 1014 250/5.6 26 24 88 >= 10 Nublado trovoadas sem precipitaçoes 2019-02-04 12:00 GMT
SBSJ SAO JOSE DOS CAMPO& BRASIL 1019 230/3.7 20 20 100 2.5 Encoberto chuva leve 2019-02-04 14:00 GMT
SBSL SAO LUIS/MARECHAL BRASIL 1012 350/9.3 28 26 88 >= 10 Predominantemente claro - 2019-02-04 14:00 GMT
SBSM SANTA MARIA(CV/MIL) BRASIL 1021 120/16.7 22 17 73 >= 10 Nublado - 2019-02-04 13:00 GMT
SBSN SANTAREM INTL ARPT BRASIL 1013 90/16.7 27 26 94 >= 10 Parcialmente nublado - 2019-02-04 14:00 GMT
SBSP SAO PAULO/CONGONHAS BRASIL 1020 160/24.1 21 18 83 >= 10 Nublado - 2019-02-04 14:00 GMT
SBST SANTOS (BRAZ-AFB) BRASIL 1016 160/13 23 21 88 2.0 Encoberto chuvisco moderado 2019-02-04 13:00 GMT
SBSV SALVADOR/DOIS JULHO BRASIL 1013 100/22.2 31 24 66 >= 10 Parcialmente nublado - 2019-02-04 14:00 GMT
SBSY SANTA ISABEL MORRO BRASIL 1017 200/9.3 22 20 88 >= 10 Parcialmente nublado - 2019-02-04 12:00 GMT
SBTA TAUBATE BRASIL 1017 -/3.7 20 19 93 5.0 Encoberto névoa úmida 2019-02-04 13:00 GMT
SBTC TAPURUCUARA BRASIL 1012 60/16.7 30 25 74 >= 10 Predominantemente claro - 2019-02-03 20:00 GMT
SBTE TERESINA AIRPORT BRASIL 1012 360/7.4 29 24 74 >= 10 Parcialmente nublado - 2019-02-04 13:00 GMT
SBTF TEFE BRASIL 1013 160/9.3 28 25 83 >= 10 Nublado - 2019-02-04 14:00 GMT
SBTK TARAUACA BRASIL 1007 280/5.6 26 23 83 >= 10 Parcialmente nublado - 2018-09-14 21:00 GMT
SBTT TABATINGA INTL ARPT BRASIL 1014 80/11.1 24 22 88 2.0 Encoberto chuva forte 2019-02-04 14:00 GMT
SBTU TUCURUI BRASIL 1015 - - - - >= 10 Predominantemente claro - 2019-02-04 13:00 GMT
SBUA SAO GABRIEL CACHOEI BRASIL 1006 110/11.1 31 24 66 >= 10 Predominantemente claro - 2019-02-03 20:00 GMT
SBUF PAULO AFONSO BRASIL 1014 60/13 29 20 58 >= 10 Parcialmente nublado - 2019-02-04 12:00 GMT
SBUG URUGUAIANA/RUBEM BRASIL 1021 100/22.2 24 16 60 >= 10 - - 2019-02-04 13:00 GMT
SBUL UBERLANDIA BRASIL 1020 150/9.3 24 16 60 >= 10 - - 2019-02-04 12:00 GMT
SBUP URUBUPUNGA/CASTILHO BRASIL 1011 270/16.7 25 20 73 >= 10 Encoberto trovoadas sem precipitaçoes 2007-11-07 22:00 GMT
SBUR UBERABA BRASIL 1019 320/11.1 22 16 68 >= 10 - - 2019-02-04 12:00 GMT
SBVH VILHENA BRASIL 1017 110/14.8 25 22 83 >= 10 - - 2019-02-04 13:00 GMT
SBVT VITORIA/GOIABEIRAS BRASIL 1013 160/27.8 29 22 66 >= 10 Predominantemente claro - 2019-02-04 14:00 GMT
SBYA IAUARETE (PRIVATE) BRASIL 1008 230/5.6 31 23 62 >= 10 Parcialmente nublado - 2015-11-06 19:00 GMT
SBYS PIRASSUNUNGA/CAMPO BRASIL 1017 190/11.1 24 19 73 >= 10 Parcialmente nublado - 2019-02-04 13:00 GMT